Location: Serin Observatory
(40.5200°N, 74.4500°W)
Time: 23:32:06
(UTC+00:00)

SL-8 R/B - Visible Passes

Search period start: 01 September 2014 00:00
Search period end: 11 September 2014 00:00
Orbit: 659 x 670 km, 48.4° (Epoch: 01 September)

Date Brightness Start Highest point End Pass type
(mag) Time Alt. Az. Time Alt. Az. Time Alt. Az.
01 Sep 5.0 00:23:47 10° W 00:28:16 38° NNW 00:32:44 10° NE visible
01 Sep 5.0 02:07:23 10° WNW 02:11:42 32° N 02:12:13 32° NNE visible
01 Sep 6.7 03:50:06 10° WNW 03:50:13 11° WNW 03:50:13 11° WNW visible
02 Sep 5.2 00:56:12 10° WNW 01:00:30 31° N 01:04:20 12° ENE visible
02 Sep 5.3 02:39:20 10° NW 02:42:21 32° NNW 02:42:21 32° NNW visible
03 Sep 5.0 01:28:25 10° WNW 01:32:46 33° N 01:34:28 26° NE visible
03 Sep 6.1 03:11:07 10° WNW 03:12:28 19° NW 03:12:28 19° NW visible
04 Sep 5.2 00:17:16 10° WNW 00:21:33 31° N 00:25:50 10° ENE visible
04 Sep 4.5 02:00:20 10° NW 02:04:36 44° N 02:04:36 44° N visible
05 Sep 4.9 00:49:27 10° WNW 00:53:49 34° N 00:56:44 18° ENE visible
05 Sep 5.3 02:32:07 10° WNW 02:34:44 32° NW 02:34:44 32° NW visible
06 Sep 4.3 01:21:21 10° NW 01:25:59 46° NNE 01:26:54 41° NE visible
06 Sep 6.3 03:04:00 10° WNW 03:04:54 15° WNW 03:04:54 15° WNW visible
07 Sep 4.9 00:10:29 10° NW 00:14:52 34° N 00:19:04 11° ENE visible
07 Sep 4.1 01:53:08 10° WNW 01:57:05 60° NW 01:57:05 60° NW visible
08 Sep 4.2 00:42:21 10° NW 00:47:01 49° NNE 00:49:18 27° E visible
08 Sep 5.6 02:25:03 10° WNW 02:27:19 26° W 02:27:19 26° W visible
09 Sep 3.5 01:14:08 10° WNW 01:18:57 87° NNE 01:19:35 67° ESE visible
09 Sep 6.6 02:57:36 10° W 02:57:36 10° W 02:57:36 10° W visible
10 Sep 4.2 00:03:21 10° NW 00:08:03 51° NNE 00:11:53 15° E visible
10 Sep 4.6 01:46:05 10° WNW 01:49:55 40° WSW 01:49:55 40° WSW visible
